Simultaneous Nadir Overpasses (SNOs) Predictions

Prediction of SNOs between GOES-15 and NPP Satellite Orbit:

Table of predicted SNOs for the next 14.0 days since TLE Epoch: 4/24/2021
Index Date Time (GOES-15) GOES-15 Lat,Lon NPP Lat,Lon Distance(km) Time Diff (sec)
1 04/24/2021 09:39:33 0.02,-127.70 -0.79,-124.18 401.98 80
2 04/25/2021 22:01:28 -0.03,-127.64 -0.42,-129.47 209.00 80
3 04/26/2021 21:45:23 -0.02,-127.60 0.57,-124.94 303.54 80
4 04/28/2021 10:07:09 0.03,-127.55 0.63,-130.20 301.60 80
5 04/29/2021 09:45:44 0.02,-127.50 -0.36,-125.66 209.69 80
6 04/30/2021 22:07:39 -0.03,-127.41 -0.85,-130.95 404.01 80
7 05/01/2021 21:51:34 -0.02,-127.37 0.21,-126.43 107.78 80
8 05/03/2021 10:13:21 0.03,-127.32 0.99,-131.69 496.98 80
9 05/04/2021 09:51:55 0.03,-127.27 -0.00,-127.15 14.00 80
10 05/06/2021 21:55:05 -0.03,-127.12 -0.20,-127.91 89.40 80
11 05/07/2021 21:39:00 -0.03,-127.08 0.79,-123.37 422.30 80
